Miscellaneous Local Product
Issued by NWS North Platte, NE

Home | Current Version | Previous Version | Graphics & Text | Print | Product List | Glossary On
Versions: 1 2 3 4 5 6 7 8 9 10 11 12 13 14 15 16 17 18 19 20 21 22 23 24 25 26 27 28 29 30 31 32 33 34 35 36 37 38 39 40 41 42 43 44 45 46 47 48 49 50
000
AXUS43 KLBF 312210
MISLBF


WESTERN AND NORTH CENTRAL NEBRASKA HOURLY WEATHER ROUNDUP
NATIONAL WEATHER SERVICE NORTH PLATTE NE
500 PM CDT MON AUG 31 2015

NOTE: "FAIR" INDICATES FEW OR NO CLOUDS BELOW 12,000 FEET WITH NO
SIGNIFICANT WEATHER AND/OR OBSTRUCTIONS TO VISIBILITY.

NOTE: STATIONS NOT REPORTING VARIABLES SUCH AS SKY/WEATHER OR
PRESSURE ARE PROVIDED BY THE NEBRASKA DEPARTMENT OF
ROADS...RAWS...AND APRS NETWORKS...AND ARE NOT UNDER
NATIONAL WEATHER SERVICE QUALITY CONTROL.

...OBSERVATIONS IN AND NEAR THE EASTERN PANHANDLE OF NEBRASKA...

CITY           SKY/WX    TMP DP  RH WIND       PRES   REMARKS
PINE RIDGE     PTSUNNY   81  56  42 CALM      29.98F
CHADRON        PTSUNNY   82  53  36 NE5       29.96F
ALLIANCE       PTSUNNY   83  51  33 SE9       29.99F
SIDNEY         PTSUNNY   83  51  33 E15       30.03S
CRESCENT LAKE    N/A     74  59  58 CALM        N/A
BIG SPRINGS      N/A     87  54  32 NE3         N/A
$$

...OBSERVATIONS IN NORTH CENTRAL NEBRASKA...

CITY           SKY/WX    TMP DP  RH WIND       PRES   REMARKS
VALENTINE      CLOUDY    79  59  50 N9        29.94F
THEDFORD       PTSUNNY   85  61  43 N13G18    29.95S
AINSWORTH      PTSUNNY   83  63  49 NE10      29.94S
O`NEILL        SUNNY     90  62  39 NW10      29.89R HX  91
ORD            SUNNY     90  62  39 S9        29.87F HX  90
BROKEN BOW     SUNNY     91  63  39 S8        29.90S HX  92
SPRINGVIEW       N/A     83  65  55 NE5         N/A
SARGENT          N/A     91  62  38 CALM        N/A  HX  91
CHAMBERS         N/A     91  62  38 S6          N/A  HX  91
EWING            N/A     86  72  62 S6          N/A  HX  92
$$

...OBSERVATIONS IN SOUTHWEST NEBRASKA AND FAR NORTHEAST COLORADO...

CITY           SKY/WX    TMP DP  RH WIND       PRES   REMARKS
WRAY           CLOUDY    96  45  17 N12       29.95S HX  92
HOLYOKE        FAIR      91  48  22 NE13G20   29.97F
IMPERIAL       MOSUNNY   92  55  28 NE12      29.93F HX  90
OGALLALA       PTSUNNY   89  52  28 N14       29.94S
NORTH PLATTE   SUNNY     89  63  41 SE7       29.90F HX  90
MCCOOK         SUNNY     96  57  27 E9        29.87F HX  95
LEXINGTON      SUNNY     91  65  42 SE12      29.90F HX  92
PAXTON           N/A     87  67  50 SE5         N/A
BRADY            N/A     89  67  47 CALM        N/A  HX  91
CALLAWAY         N/A     88  73  61 S3          N/A  HX  96
$$

...OBSERVATIONS IN CENTRAL LINCOLN COUNTY AREA...

CITY           SKY/WX    TMP DP  RH WIND       PRES   REMARKS
N.P. AIRPORT   SUNNY     89  63  41 SE7       29.90F HX  90
N.P. DOWNTOWN    N/A     90  63  40 CALM        N/A  HX  91
N.P. SOUTHEAST   N/A     93  64  37 CALM        N/A  HX  94
N.P. HILLCREST   N/A     90  63  40 S6          N/A  HX  91
$$

...SOME OBSERVATIONS FROM AROUND THE REGION...

CITY           SKY/WX    TMP DP  RH WIND       PRES   REMARKS
DENVER         PTSUNNY   87  42  20 NE7       30.07S
LARAMIE        LGT RAIN  62  45  53 VRB5G29   30.22F
CHEYENNE       LGT RAIN  83  41  22 S8        30.12F
SCOTTSBLUFF    PTSUNNY   87  51  28 E8        29.98F
RAPID CITY     PTSUNNY   75  57  53 SE13      29.97F
PIERRE         PTSUNNY   77  61  57 CALM      29.90S
WINNER         FAIR      80  61  52 NW9       29.92S
SIOUX FALLS    MOSUNNY   82  70  66 S14       29.87R
OMAHA          MOSUNNY   86  66  51 S13       29.91F
GRAND ISLAND   SUNNY     90  63  40 S13       29.90F HX  91
KANSAS CITY    SUNNY     90  68  48 SW12      29.94F HX  94
WICHITA        SUNNY     94  60  32 S10       29.90F HX  94
HAYS           SUNNY     99  50  19 S18G24    29.87R HX  95
LIBERAL        SUNNY     95  52  23 S18G29    29.92S HX  92
GOODLAND       SUNNY     93  44  18 VRB3      29.92F
$$



USA.gov is the U.S. government's official web portal to all federal, state and local government web resources and services.